Wallops Island, VA

6:18 PM EDT on July 21, 2017 (GMT -0400)
Wallops Flight Facility

Weather History for KWAL - April, 2014

Change the Weather History Date:

Tuesday, April 15, 2014

  Actual Average Record
Temperature  
Mean Temperature 51 °F 54 °F  
Max Temperature 64 °F 63 °F 84 °F (1967)
Min Temperature 38 °F 45 °F 34 °F (1973)
Degree Days  
Heating Degree Days 14    
Month to date heating degree days 138  
Since 1 July heating degree days 3801  
Cooling Degree Days 0    
Month to date cooling degree days 0  
Year to date cooling degree days 0  
Growing Degree Days 2 (Base 50)    
Moisture  
Dew Point 56 °F    
Average Humidity 92    
Maximum Humidity 100    
Minimum Humidity 83    
Precipitation  
Precipitation 0.94 in 0.10 in 2.44 in (2007)
Month to date precipitation 2.16 1.68  
Year to date precipitation 10.88 11.48  
Sea Level Pressure  
Sea Level Pressure 29.76 in    
Wind  
Wind Speed 18 mph (SW)    
Max Wind Speed 30 mph    
Max Gust Speed 40 mph    
Visibility 3 miles    
Events Fog , Rain    
T = Trace of Precipitation, MM = Missing Value Source: NWS Daily Summary

Daily Weather History Graph

Daily Weather History Graph

Search for Another Location

Airport or City:

Trip Planner

Search our weather history database for the weather conditions in past years. The results will help you decide how hot, cold, wet, or windy it might be!

Date:

Astronomy

Apr. 15, 2014 Rise Set
Actual Time 6:26 AM EDT 7:37 PM EDT
Civil Twilight 5:59 AM EDT 8:05 PM EDT
Nautical Twilight 5:27 AM EDT 8:37 PM EDT
Astronomical Twilight 4:53 AM EDT 9:11 PM EDT
Moon 8:15 PM EDT (4/15) 6:33 AM EDT (4/15)
Length of Visible Light 14h 05m
Length of Day
13h 11m
Full, 100% of the Moon is Illuminated
Apr 15
Full
Apr 22
Last Quarter
Apr 29
New
May 6
First Quarter
May 14
Full

Hourly Weather History & Observations

Time (EDT) Temp. Windchill Dew Point Humidity Pressure Visibility Wind Dir Wind Speed Gust Speed Precip Events Conditions
12:10 AM 57.9 °F - 57.0 °F 97% 29.92 in 2.5 mi SSW 15.0 mph 25.3 mph N/A   Overcast
12:42 AM 57.9 °F - 57.0 °F 97% 29.90 in 3.0 mi SSW 16.1 mph 26.5 mph N/A   Overcast
12:54 AM 57.9 °F - 57.0 °F 97% 29.88 in 2.5 mi SSW 16.1 mph - N/A   Overcast
1:00 AM 57.9 °F - 57.0 °F 97% 29.89 in 1.8 mi SSW 15.0 mph 24.2 mph N/A   Overcast
1:08 AM 57.9 °F - 57.0 °F 97% 29.89 in 0.8 mi SSW 16.1 mph 24.2 mph N/A   Mist
1:25 AM 60.1 °F - 57.9 °F 93% 29.88 in 1.2 mi SSW 19.6 mph 26.5 mph N/A   Overcast
1:54 AM 59.0 °F - 57.9 °F 96% 29.86 in 1.0 mi SSW 18.4 mph 24.2 mph N/A   Mist
2:10 AM 60.1 °F - 59.0 °F 96% 29.86 in 0.8 mi SSW 18.4 mph - N/A   Mist
2:22 AM 60.1 °F - 59.0 °F 96% 29.86 in 1.0 mi SSW 19.6 mph 27.6 mph N/A   Mist
2:47 AM 59.0 °F - 57.9 °F 96% 29.86 in 0.5 mi SSW 20.7 mph 26.5 mph N/A Fog Fog
2:54 AM 59.0 °F - 57.9 °F 96% 29.85 in 0.5 mi SSW 16.1 mph 26.5 mph N/A Fog Fog
3:09 AM 60.1 °F - 59.0 °F 96% 29.85 in 0.8 mi SSW 21.9 mph 28.8 mph N/A   Mist
3:18 AM 60.1 °F - 59.0 °F 96% 29.85 in 1.2 mi SSW 19.6 mph 27.6 mph N/A   Overcast
3:54 AM 57.9 °F - 57.9 °F 100% 29.84 in 1.2 mi SSW 13.8 mph 21.9 mph 0.00 in   Overcast
4:04 AM 57.9 °F - 57.0 °F 97% 29.84 in 1.0 mi SSW 12.7 mph - N/A   Mist
4:16 AM 57.9 °F - 57.0 °F 97% 29.83 in 1.2 mi SSW 13.8 mph - N/A   Overcast
4:39 AM 57.9 °F - 57.9 °F 100% 29.82 in 1.0 mi SSW 16.1 mph - N/A   Mist
4:54 AM 60.1 °F - 59.0 °F 96% 29.81 in 1.2 mi SSW 18.4 mph 26.5 mph N/A   Overcast
5:07 AM 60.1 °F - 59.0 °F 96% 29.82 in 2.5 mi SSW 17.3 mph 25.3 mph N/A   Overcast
5:21 AM 60.1 °F - 59.0 °F 96% 29.81 in 1.8 mi SSW 17.3 mph 24.2 mph N/A   Overcast
5:35 AM 60.1 °F - 59.0 °F 96% 29.80 in 2.5 mi SSW 18.4 mph 24.2 mph N/A   Overcast
5:43 AM 61.0 °F - 60.1 °F 97% 29.80 in 5.0 mi SSW 17.3 mph 25.3 mph N/A   Overcast
5:54 AM 60.1 °F - 59.0 °F 96% 29.79 in 3.0 mi SSW 17.3 mph - N/A   Overcast
5:59 AM 60.1 °F - 59.0 °F 96% 29.80 in 2.0 mi SSW 19.6 mph - N/A   Overcast
6:10 AM 60.1 °F - 59.0 °F 96% 29.80 in 1.8 mi SSW 17.3 mph 26.5 mph N/A   Overcast
6:28 AM 60.1 °F - 59.0 °F 96% 29.79 in 2.5 mi SSW 18.4 mph 27.6 mph 0.00 in Rain Light Rain
6:37 AM 60.1 °F - 59.0 °F 96% 29.79 in 3.0 mi SSW 12.7 mph 25.3 mph 0.00 in Rain Light Rain
6:43 AM 60.1 °F - 59.0 °F 96% 29.79 in 2.0 mi SSW 15.0 mph - 0.00 in Rain Light Rain
6:52 AM 60.8 °F - 59.0 °F 94% 29.79 in 3.0 mi SSW 15.0 mph 25.3 mph 0.01 in Rain Light Rain
6:54 AM 60.1 °F - 59.0 °F 96% 29.78 in 4.0 mi SSW 18.4 mph 26.5 mph 0.01 in Rain Light Rain
7:54 AM 61.0 °F - 60.1 °F 97% 29.77 in 4.0 mi SSW 21.9 mph 32.2 mph 0.01 in   Overcast
8:37 AM 60.1 °F - 59.0 °F 96% 29.77 in 2.0 mi SSW 17.3 mph 27.6 mph 0.00 in   Overcast
8:45 AM 60.1 °F - 59.0 °F 96% 29.76 in 1.2 mi SSW 18.4 mph 24.2 mph 0.00 in   Overcast
8:54 AM 60.1 °F - 59.0 °F 96% 29.75 in 1.0 mi SSW 16.1 mph 24.2 mph 0.00 in   Overcast
9:01 AM 60.1 °F - 59.0 °F 96% 29.75 in 0.5 mi SSW 16.1 mph 24.2 mph N/A Fog Fog
9:29 AM 60.1 °F - 60.1 °F 100% 29.74 in 1.0 mi SSW 16.1 mph 27.6 mph N/A   Mist
9:39 AM 60.1 °F - 60.1 °F 100% 29.74 in 1.8 mi SSW 16.1 mph 27.6 mph N/A   Overcast
9:41 AM 61.0 °F - 60.1 °F 97% 29.74 in 2.5 mi SSW 18.4 mph 25.3 mph N/A   Overcast
9:49 AM 60.8 °F - 60.8 °F 100% 29.74 in 4.0 mi SSW 18.4 mph 25.3 mph N/A   Overcast
9:54 AM 61.0 °F - 60.1 °F 97% 29.73 in 4.0 mi SSW 17.3 mph - N/A   Overcast
10:35 AM 61.0 °F - 60.1 °F 97% 29.73 in 2.0 mi SSW 20.7 mph 29.9 mph 0.00 in   Overcast
10:45 AM 61.0 °F - 60.1 °F 97% 29.73 in 1.5 mi SSW 20.7 mph 27.6 mph 0.00 in Rain Light Rain
10:54 AM 60.1 °F - 60.1 °F 100% 29.73 in 0.8 mi SSW 18.4 mph 27.6 mph 0.00 in Rain Light Rain
11:09 AM 60.1 °F - 59.0 °F 96% 29.74 in 0.5 mi SSW 21.9 mph 29.9 mph 0.00 in Fog , Rain Light Rain
11:30 AM 60.1 °F - 60.1 °F 100% 29.73 in 1.0 mi SSW 19.6 mph 28.8 mph 0.01 in Rain Light Rain
11:37 AM 60.1 °F - 60.1 °F 100% 29.73 in 2.0 mi SW 19.6 mph 28.8 mph 0.03 in Rain Rain
11:49 AM 60.8 °F - 60.8 °F 100% 29.73 in 1.5 mi SSW 21.9 mph 32.2 mph 0.11 in Rain Rain
11:52 AM 60.8 °F - 60.8 °F 100% 29.73 in 2.5 mi SW 23.0 mph 32.2 mph 0.11 in Rain Light Rain
11:54 AM 61.0 °F - 60.1 °F 97% 29.72 in 3.0 mi SSW 23.0 mph 32.2 mph 0.11 in Rain Light Rain
12:17 PM 62.1 °F - 61.0 °F 96% 29.71 in 3.0 mi SW 18.4 mph 32.2 mph 0.07 in Rain Rain
12:54 PM 63.0 °F - 62.1 °F 97% 29.65 in 6.0 mi South 18.4 mph - 0.10 in Rain Light Rain
1:06 PM 62.1 °F - 61.0 °F 96% 29.68 in 6.0 mi SSW 15.0 mph - 0.01 in Rain Light Rain
1:15 PM 61.0 °F - 60.1 °F 97% 29.69 in 8.0 mi SSW 16.1 mph 26.5 mph 0.01 in Rain Light Rain
1:54 PM 62.1 °F - 60.1 °F 93% 29.69 in 10.0 mi SW 16.1 mph 25.3 mph 0.01 in   Overcast
2:22 PM 63.0 °F - 61.0 °F 93% 29.68 in 10.0 mi SSW 18.4 mph - N/A   Scattered Clouds
2:40 PM 62.1 °F - 61.0 °F 96% 29.68 in 10.0 mi SSW 18.4 mph 26.5 mph N/A   Mostly Cloudy
2:54 PM 61.0 °F - 60.1 °F 97% 29.67 in 2.0 mi SSW 15.0 mph 25.3 mph N/A   Overcast
3:01 PM 60.1 °F - 59.0 °F 96% 29.67 in 1.0 mi SSW 18.4 mph - N/A   Overcast
3:15 PM 60.1 °F - 59.0 °F 96% 29.66 in 2.0 mi SSW 18.4 mph - N/A   Overcast
3:19 PM 60.1 °F - 59.0 °F 96% 29.67 in 3.0 mi SSW 18.4 mph 25.3 mph N/A   Overcast
3:45 PM 60.1 °F - 59.0 °F 96% 29.67 in 2.0 mi SSW 17.3 mph - N/A   Overcast
3:49 PM 60.8 °F - 59.0 °F 94% 29.67 in 1.0 mi SSW 18.4 mph 24.2 mph N/A   Overcast
3:51 PM 60.8 °F - 59.0 °F 94% 29.66 in 0.5 mi SW 16.1 mph 24.2 mph N/A Fog Fog
3:54 PM 61.0 °F - 59.0 °F 93% 29.65 in 0.5 mi SW 15.0 mph 24.2 mph N/A Fog Fog
4:15 PM 61.0 °F - 60.1 °F 97% 29.67 in 1.0 mi SW 17.3 mph 25.3 mph N/A   Mist
4:24 PM 62.1 °F - 61.0 °F 96% 29.67 in 1.8 mi SW 20.7 mph 27.6 mph N/A   Overcast
4:43 PM 62.1 °F - 61.0 °F 96% 29.66 in 0.8 mi SSW 18.4 mph - 0.00 in Rain Light Rain
4:51 PM 62.6 °F - 60.8 °F 94% 29.65 in 1.2 mi SSW 17.3 mph - 0.00 in Rain Light Rain
4:54 PM 62.1 °F - 61.0 °F 96% 29.65 in 2.0 mi SSW 17.3 mph - 0.00 in Rain Light Rain
4:56 PM 62.1 °F - 61.0 °F 96% 29.65 in 3.0 mi SSW 18.4 mph 25.3 mph 0.00 in Rain Light Rain
5:10 PM 60.1 °F - 60.1 °F 100% 29.65 in 2.0 mi SSW 15.0 mph - 0.00 in   Overcast
5:17 PM 60.1 °F - 59.0 °F 96% 29.65 in 1.2 mi SSW 13.8 mph - 0.00 in Rain Light Rain
5:25 PM 59.0 °F - 57.9 °F 96% 29.64 in 1.0 mi South 15.0 mph - 0.00 in Rain Light Rain
5:35 PM 59.0 °F - 57.9 °F 96% 29.64 in 0.8 mi SSW 13.8 mph - 0.01 in Rain Light Rain
5:43 PM 59.0 °F - 57.9 °F 96% 29.63 in 1.2 mi SSW 16.1 mph - 0.03 in Rain Heavy Rain
5:50 PM 59.0 °F - 57.2 °F 94% 29.62 in 2.5 mi SSW 10.4 mph - 0.05 in Rain Light Rain
5:54 PM 59.0 °F - 57.9 °F 96% 29.61 in 4.0 mi South 12.7 mph - 0.05 in Rain Light Rain
6:16 PM 62.1 °F - 60.1 °F 93% 29.61 in 10.0 mi SSW 16.1 mph 20.7 mph 0.00 in Rain Light Rain
6:24 PM 62.1 °F - 61.0 °F 96% 29.61 in 9.0 mi South 19.6 mph 25.3 mph 0.01 in Rain Light Rain
6:43 PM 61.0 °F - 60.1 °F 97% 29.62 in 5.0 mi SW 12.7 mph - 0.02 in Rain Light Rain
6:52 PM 55.4 °F - 55.4 °F 100% 29.67 in 4.0 mi NNW 21.9 mph 40.3 mph 0.05 in Rain Heavy Rain
6:54 PM 55.0 °F - 54.0 °F 96% 29.66 in 4.0 mi North 25.3 mph 40.3 mph 0.07 in Rain Heavy Rain
7:01 PM 53.1 °F - 51.1 °F 93% 29.68 in 4.0 mi NNW 21.9 mph 39.1 mph 0.04 in Rain Heavy Rain
7:11 PM 51.1 °F - 48.9 °F 92% 29.68 in 6.0 mi North 26.5 mph 34.5 mph 0.05 in Rain Light Rain
7:19 PM 51.1 °F - 48.9 °F 92% 29.70 in 8.0 mi North 17.3 mph 34.5 mph 0.05 in Rain Light Rain
7:35 PM 50.0 °F - 48.0 °F 93% 29.73 in 5.0 mi North 20.7 mph 28.8 mph 0.08 in Rain Rain
7:52 PM 48.2 °F - 46.4 °F 93% 29.74 in 4.0 mi North 18.4 mph 34.5 mph 0.13 in Rain Light Rain
7:54 PM 48.0 °F - 46.0 °F 93% 29.75 in 5.0 mi North 16.1 mph 34.5 mph 0.13 in Rain Light Rain
8:23 PM 46.0 °F 38.3 °F 43.0 °F 89% 29.79 in 6.0 mi NNW 20.7 mph 28.8 mph 0.04 in Rain Light Rain
8:34 PM 46.0 °F 38.3 °F 43.0 °F 89% 29.81 in 9.0 mi North 20.7 mph 28.8 mph 0.05 in Rain Light Rain
8:46 PM 45.0 °F 36.6 °F 42.1 °F 90% 29.81 in 8.0 mi North 21.9 mph 35.7 mph 0.05 in Rain Light Rain
8:54 PM 45.0 °F 37.1 °F 41.0 °F 86% 29.80 in 8.0 mi North 19.6 mph 32.2 mph 0.06 in Rain Light Rain
9:54 PM 44.1 °F 36.2 °F 39.9 °F 85% 29.83 in - North 18.4 mph 26.5 mph 0.06 in Rain Rain
10:05 PM 44.1 °F 37.1 °F 39.9 °F 85% 29.87 in - North 15.0 mph 25.3 mph 0.01 in Rain Light Rain
10:41 PM 43.0 °F 36.0 °F 39.9 °F 89% 29.88 in - North 13.8 mph 25.3 mph 0.03 in Rain Light Rain
10:50 PM 42.8 °F 35.4 °F 39.2 °F 87% 29.90 in - North 15.0 mph - 0.04 in Rain Light Rain
10:54 PM 43.0 °F 36.0 °F 41.0 °F 93% 29.90 in - North 13.8 mph - 0.04 in Rain Light Rain
11:21 PM 42.1 °F 33.9 °F 39.0 °F 89% 29.90 in - North 17.3 mph 28.8 mph 0.04 in Rain Rain
11:29 PM 42.1 °F 34.9 °F 39.0 °F 89% 29.91 in - North 13.8 mph 32.2 mph 0.06 in Rain Rain
11:33 PM 42.1 °F 33.6 °F 39.0 °F 89% 29.91 in - NNW 18.4 mph 26.5 mph 0.08 in Rain Rain
11:43 PM 41.0 °F 31.4 °F 37.9 °F 89% 29.92 in - North 21.9 mph 33.4 mph 0.10 in Rain Rain
11:54 PM 41.0 °F 31.6 °F 37.9 °F 89% 29.93 in - NNW 20.7 mph 31.1 mph 0.13 in Rain Rain